(201634) = 1998 MY36 = 2003 SQ284

Discovered at Socorro on 2003-09-20 by LINEAR.

Orbit

Orbit type: Main Belt

Note: WebGL enabled browser required.

epoch2024-03-31.0
epoch JD2460400.5
perihelion date2022-02-25.42914
perihelion JD2459635.92914
argument of perihelion (°)44.88179
ascending node (°)303.42014
inclination (°)3.58420
eccentricity0.1839122
perihelion distance (AU)2.2683201
Tisserand w.r.t. Jupiter3.3
ΔV w.r.t. Earth (km/sec)9.6
semimajor axis (AU)2.7795049
mean anomaly (°)162.61867
mean daily motion (°/day)0.21269270
aphelion distance (AU)3.291
period (years)4.63
P-vector [x]0.97807763
P-vector [y]-0.20426828
P-vector [z]-0.04047983
Q-vector [x]0.20159745
Q-vector [y]0.88010530
Q-vector [z]0.42985246
absolute magnitude16.51
phase slope0.15
uncertainty0
referenceMPEC 2024-D64
observations used348
oppositions15
arc length (days)9366
first opposition used1998
last opposition used2024
residual rms (arc-secs)0.79
perturbers coarse indicatorM-v
perturbers precise indicator003Ek
first observation date used1998-06-28.0
last observation date used2024-02-18.0
computer nameMPCLINUX
JD of orbit computation2456639.685914
perihelion JD uncertainty (days)8.1284E-05
argument of perihelion uncertainty (°)8.3416E-05
ascending node uncertainty (°)8.0828E-05
inclination uncertainty (°)6.2217E-06
eccentricity uncertainty 6.4456E-08
perihelion distance uncertainty (AU)1.7581E-07
Minimum Orbit Intersection Distances (in AU)
for orbit epoch: 2460400.5, reference: E2024-D64
Mercury1.88837
Venus1.54669
Earth1.26326
Mars0.89259
Jupiter2.12918
Saturn6.00032
Uranus15.1555
Neptune27.1226

Observations

355 total observations over interval: 1998 06 28.35865 – 2024 02 18.423255
These data are available for download (format description).

Date (UT) J2000 RA J2000 Dec Magn Location Ref
1998 06 28.35865 20 52 13.76 -18 19 26.5 20.3 V 691 – Steward Observatory, Kitt Peak-Spacewatch MPS 1839
1998 06 28.38053 20 52 13.25 -18 19 26.8 20.6 V 691 – Steward Observatory, Kitt Peak-Spacewatch MPS 1839
1998 06 28.40244 20 52 12.70 -18 19 27.1 20.2 V 691 – Steward Observatory, Kitt Peak-Spacewatch MPS 1839
1998 07 03.37744 20 49 56.22 -18 20 44.4 20.2 V 691 – Steward Observatory, Kitt Peak-Spacewatch MPS 1839
1998 07 03.39963 20 49 55.48 -18 20 45.2 20.2 V 691 – Steward Observatory, Kitt Peak-Spacewatch MPS 1839
1998 07 03.42144 20 49 54.75 -18 20 45.4 20.3 V 691 – Steward Observatory, Kitt Peak-Spacewatch MPS 1839
2003 09 18.38999 00 18 57.27 +07 55 07.9 20.2   608 – Haleakala-AMOS MPS 87372
2003 09 18.40068 00 18 56.77 +07 55 06.1 19.9   608 – Haleakala-AMOS MPS 87372
2003 09 18.41162 00 18 56.25 +07 55 03.1 20.5   608 – Haleakala-AMOS MPS 87372
2003 09 20.29554 00 17 26.58 +07 48 33.8 19.6   704 – Lincoln Laboratory ETS, New Mexico MPS 87372
2003 09 20.30791 00 17 25.88 +07 48 31.8 20.2   704 – Lincoln Laboratory ETS, New Mexico MPS 87372
2003 09 20.33316 00 17 24.63 +07 48 24.8 19.6   704 – Lincoln Laboratory ETS, New Mexico MPS 87372
2003 09 20.34579 00 17 24.02 +07 48 22.0 19.6   704 – Lincoln Laboratory ETS, New Mexico MPS 87372
2003 09 20.39075 00 17 21.75 +07 48 12.4 19.6 V 691 – Steward Observatory, Kitt Peak-Spacewatch MPS 87372
2003 09 20.41674 00 17 20.44 +07 48 06.6 19.6 V 691 – Steward Observatory, Kitt Peak-Spacewatch MPS 87372
2003 09 20.44269 00 17 19.15 +07 48 00.9 19.5 V 691 – Steward Observatory, Kitt Peak-Spacewatch MPS 87372
2003 09 21.34447 00 16 35.78 +07 44 44.2 18.8   644 – Palomar Mountain/NEAT MPS 87372
2003 09 21.36594 00 16 34.70 +07 44 39.5 19.0   644 – Palomar Mountain/NEAT MPS 87372
2003 09 21.39477 00 16 33.26 +07 44 33.3 18.7   644 – Palomar Mountain/NEAT MPS 87372
2003 09 27.23294 00 11 46.27 +07 21 06.4 19.4   704 – Lincoln Laboratory ETS, New Mexico MPS 87372
2003 09 27.24587 00 11 45.59 +07 21 03.5 19.5   704 – Lincoln Laboratory ETS, New Mexico MPS 87372
2003 09 27.25896 00 11 44.91 +07 21 00.0 20.0   704 – Lincoln Laboratory ETS, New Mexico MPS 87372
2003 09 27.27201 00 11 44.17 +07 20 57.1 19.8   704 – Lincoln Laboratory ETS, New Mexico MPS 87372
2003 09 27.28488 00 11 43.54 +07 20 53.0 19.6   704 – Lincoln Laboratory ETS, New Mexico MPS 87372
2003 10 01.16538 00 08 33.26 +07 03 45.5 18.9 R 699 – Lowell Observatory-LONEOS MPS 87372
2003 10 01.18049 00 08 32.58 +07 03 42.1   699 – Lowell Observatory-LONEOS MPS 87372
2003 10 01.19541 00 08 31.83 +07 03 38.1   699 – Lowell Observatory-LONEOS MPS 87372
2003 10 01.21043 00 08 31.19 +07 03 33.9   699 – Lowell Observatory-LONEOS MPS 87372
2003 10 04.54005 00 05 51.64 +06 48 21.0 20.2   608 – Haleakala-AMOS MPS 87372
2003 10 04.55106 00 05 51.08 +06 48 17.0 20.1   608 – Haleakala-AMOS MPS 87372
2003 10 04.56164 00 05 50.61 +06 48 14.4 20.4   608 – Haleakala-AMOS MPS 87372
2003 10 17.21241 23 57 09.43 +05 50 57.9 19.2 R 699 – Lowell Observatory-LONEOS MPS 88281
2003 10 17.22475 23 57 08.96 +05 50 56.0   699 – Lowell Observatory-LONEOS MPS 88281
2003 10 17.23715 23 57 08.54 +05 50 51.3   699 – Lowell Observatory-LONEOS MPS 88281
2003 10 17.24955 23 57 08.10 +05 50 48.3   699 – Lowell Observatory-LONEOS MPS 88281
2003 10 18.86750 23 56 14.63 +05 44 01.3 18.8 V 049 – Uppsala-Kvistaberg MPS 88281
2003 10 18.87989 23 56 14.25 +05 43 58.5 18.8 V 049 – Uppsala-Kvistaberg MPS 88281
2003 10 18.89245 23 56 13.82 +05 43 54.8 18.8 V 049 – Uppsala-Kvistaberg MPS 88281
2003 10 25.20018 23 53 21.84 +05 20 02.0 19.5   704 – Lincoln Laboratory ETS, New Mexico MPS 88281
2003 10 25.21251 23 53 21.46 +05 19 58.9 20.3   704 – Lincoln Laboratory ETS, New Mexico MPS 88281
2003 10 25.22471 23 53 21.19 +05 19 56.7 20.0   704 – Lincoln Laboratory ETS, New Mexico MPS 88281
2003 10 25.23699 23 53 20.87 +05 19 53.7 20.2   704 – Lincoln Laboratory ETS, New Mexico MPS 88281
2003 10 25.24914 23 53 20.66 +05 19 52.1 20.1   704 – Lincoln Laboratory ETS, New Mexico MPS 88281
2004 12 11.419777 08 33 23.823 +19 48 00.32 21.43 V 645 – Apache Point-Sloan Digital Sky Survey MPS 390249
2004 12 11.423249 08 33 23.743 +19 48 00.45 22.24   645 – Apache Point-Sloan Digital Sky Survey MPS 390249
2004 12 11.450817 08 33 23.076 +19 48 01.65 21.41 V 645 – Apache Point-Sloan Digital Sky Survey MPS 390249
2004 12 11.454289 08 33 22.993 +19 48 01.80 22.21   645 – Apache Point-Sloan Digital Sky Survey MPS 390249
2004 12 19.39464 08 29 35.84 +19 55 58.8 18.0 R G96 – Mt. Lemmon Survey MPS 167055
2004 12 19.40827 08 29 35.21 +19 56 01.1 20.2 R G96 – Mt. Lemmon Survey MPS 167055
2004 12 19.42185 08 29 34.79 +19 56 02.0 20.9 R G96 – Mt. Lemmon Survey MPS 167055
2004 12 19.43550 08 29 34.27 +19 56 02.5 20.6 R G96 – Mt. Lemmon Survey MPS 167055
2005 01 18.34022 08 04 37.95 +20 50 21.7 20.3 V 691 – Steward Observatory, Kitt Peak-Spacewatch MPS 167055
2005 01 18.37294 08 04 35.98 +20 50 25.0 20.4 V 691 – Steward Observatory, Kitt Peak-Spacewatch MPS 167055
2005 01 18.40047 08 04 34.35 +20 50 28.3 20.5 V 691 – Steward Observatory, Kitt Peak-Spacewatch MPS 167055
2006 03 09.39903 12 27 54.11 -07 45 00.3   691 – Steward Observatory, Kitt Peak-Spacewatch MPS 166063
2006 03 09.41639 12 27 53.32 -07 44 56.4   691 – Steward Observatory, Kitt Peak-Spacewatch MPS 166063
2006 03 09.43375 12 27 52.55 -07 44 53.3   691 – Steward Observatory, Kitt Peak-Spacewatch MPS 166063
2008 10 21.32386 03 59 16.31 +26 00 24.5 19.8 V 691 – Steward Observatory, Kitt Peak-Spacewatch MPS 260555
2008 10 21.34153 03 59 15.62 +26 00 24.1 20.0 V 691 – Steward Observatory, Kitt Peak-Spacewatch MPS 260555
2008 10 21.35920 03 59 14.94 +26 00 23.8 19.8 V 691 – Steward Observatory, Kitt Peak-Spacewatch MPS 260555
2008 10 28.31748 03 54 32.63 +25 52 13.6 19.8 V 691 – Steward Observatory, Kitt Peak-Spacewatch MPS 261428
2008 10 28.33520 03 54 31.78 +25 52 12.1 19.9 V 691 – Steward Observatory, Kitt Peak-Spacewatch MPS 261428
2008 10 28.35291 03 54 30.92 +25 52 10.2 19.9 V 691 – Steward Observatory, Kitt Peak-Spacewatch MPS 261428
2008 11 02.32172 03 50 27.58 +25 42 25.9 20.2   704 – Lincoln Laboratory ETS, New Mexico MPS 263132
2008 11 02.33350 03 50 26.93 +25 42 23.1 20.3   704 – Lincoln Laboratory ETS, New Mexico MPS 263132
2008 11 02.34528 03 50 26.34 +25 42 22.3 20.3   704 – Lincoln Laboratory ETS, New Mexico MPS 263132
2008 11 02.35703 03 50 25.57 +25 42 22.1 20.4   704 – Lincoln Laboratory ETS, New Mexico MPS 263132
2008 11 18.21439 03 35 21.37 +24 51 22.5 19.0 V 703 – Catalina Sky Survey MPS 265198
2008 11 18.22124 03 35 20.90 +24 51 20.0 20.1 V 703 – Catalina Sky Survey MPS 265198
2008 11 18.22806 03 35 20.50 +24 51 19.2 19.3 V 703 – Catalina Sky Survey MPS 265198
2008 11 18.23491 03 35 20.18 +24 51 17.2 18.9 V 703 – Catalina Sky Survey MPS 265198
2008 11 20.24841 03 33 21.88 +24 43 03.3 19.4 V G96 – Mt. Lemmon Survey MPS 265198
2008 11 20.25393 03 33 21.52 +24 43 02.1 19.2 V G96 – Mt. Lemmon Survey MPS 265198
2008 11 20.25960 03 33 21.20 +24 43 00.5 19.4 V G96 – Mt. Lemmon Survey MPS 265198
2008 11 20.26518 03 33 20.88 +24 42 59.3 19.3 V G96 – Mt. Lemmon Survey MPS 265198
2008 11 20.33915 03 33 16.31 +24 42 41.7 20.2   704 – Lincoln Laboratory ETS, New Mexico MPS 265198
2008 11 20.35173 03 33 15.54 +24 42 37.6 20.0   704 – Lincoln Laboratory ETS, New Mexico MPS 265198
2008 11 20.36430 03 33 14.83 +24 42 33.7 19.8   704 – Lincoln Laboratory ETS, New Mexico MPS 265198
2008 11 21.25833 03 32 22.99 +24 38 49.6 19.3 V G96 – Mt. Lemmon Survey MPS 265198
2008 11 21.26941 03 32 22.38 +24 38 47.0 19.0 V G96 – Mt. Lemmon Survey MPS 265198
2008 11 21.27494 03 32 21.98 +24 38 45.6 19.4 V G96 – Mt. Lemmon Survey MPS 265198
2008 12 03.26550 03 21 37.54 +23 45 32.3 19.5 V G96 – Mt. Lemmon Survey MPS 267459
2008 12 03.26603 03 21 37.47 +23 45 32.1 19.8 V G96 – Mt. Lemmon Survey MPS 267459
2008 12 03.27214 03 21 37.22 +23 45 30.2 19.4 V G96 – Mt. Lemmon Survey MPS 267459
2008 12 03.27270 03 21 37.15 +23 45 30.4 19.8 V G96 – Mt. Lemmon Survey MPS 267459
2008 12 03.27866 03 21 36.90 +23 45 28.6 19.4 V G96 – Mt. Lemmon Survey MPS 267459
2008 12 03.27920 03 21 36.82 +23 45 28.6 19.6 V G96 – Mt. Lemmon Survey MPS 267459
